Regional Weather Roundup
Issued by NWS Midland/Odessa, TX

Skip options and go directly to product.
Home | Oldest Version | Previous Version | Current Version | All | Text Only | Save Text | Print | Product List | Glossary Off

Skip product version selection by date and time.   

499
ASUS44 KMAF 302110
RWRMAF
MIDLAND AREA WEATHER ROUNDUP
NATIONAL WEATHER SERVICE MIDLAND TX
400 PM CDT THU JUN 30 2016

...IN SOUTHWEST TEXAS AND SOUTHEAST NEW MEXICO...

CITY           SKY/WX    TMP DP  RH WIND       PRES   REMARKS
ALPINE         SUNNY     88  47  24 SE6G16    30.17F
ANDREWS        FAIR      93  56  28 SE14G21   30.05F
ARTESIA        MOSUNNY   95  52  23 SE13G29   30.03F
BIG SPRING     MOSUNNY   90  58  34 S9        30.05F
CARLSBAD       SUNNY     96  50  20 S13G23    30.01F
DRYDEN           N/A     97  59  28 E14G21    29.98F
FORT STOCKTON  MOSUNNY   93  56  28 E15G22    30.03F
GUAD PASS      CLOUDY    84  47  27 E23G31    30.19F HAZE
HOBBS          MOSUNNY   91  50  24 E16       30.07F
MARFA          CLOUDY   N/A N/A N/A E6G16     30.15F
MIDLAND AIRPK  MOSUNNY   93  57  29 S13G20    30.04F
MIDLAND INTL   SUNNY     95  57  27 SE13      30.03F
ODESSA         MOSUNNY   93  59  31 SE13G18   30.04F
PECOS          SUNNY     96  55  24 E13G18    29.98F
PRESIDIO       FAIR      94  54  25 E6        29.97F
SEMINOLE       SUNNY     95  53  24 SE12G23   30.06F
SNYDER           N/A     91  62  38 SE5       30.03F
WINK           SUNNY     93  56  28 SE15      30.00F
$$
...OTHER STATIONS IN TEXAS...

CITY           SKY/WX    TMP DP  RH WIND       PRES   REMARKS
ABILENE        MOSUNNY   91  63  39 SE13      30.01F
AMARILLO       CLOUDY    84  58  40 S21G37    30.06S
AUSTIN         MOSUNNY   94  69  44 E12       29.95F
BROWNSVILLE    MOSUNNY   94  74  52 SE17      29.91F HX 104
CORPUS CHRISTI PTSUNNY   94  73  50 SE10      29.91F HX 103
DALLAS FTW     PTSUNNY   94  62  34 S8        29.95F
DEL RIO        MOSUNNY   98  61  29 VRB7      29.91F
EL PASO        PTSUNNY   94  45  18 E10G17    30.02F
HOUSTON INT    MOSUNNY   94  71  47 NE10      29.92F HX 101
LUBBOCK        CLOUDY    92  57  30 SE5       30.05F
SAN ANGELO     SUNNY     92  64  39 VRB3      30.00F
SAN ANTONIO    MOSUNNY   93  67  42 E13       29.94F
WACO           MOSUNNY   94  64  37 CALM      29.96F
WICHITA FALLS  NOT AVBL
$$
...OTHER LOCATIONS IN NEW MEXICO...

CITY           SKY/WX    TMP DP  RH WIND       PRES   REMARKS
ALAMAGORDO     MOSUNNY   93  39  15 S18G24    30.07F
ALBUQUERQUE    PTSUNNY   87  46  24 W8        30.15F
CANNON AFB     MOSUNNY   92  53  26 W12G18    30.07F
CLOVIS         MOSUNNY   91  57  31 SW10G21   30.08F
HOLLOMAN AFB   CLOUDY    92  43  18 S12       30.04F
ROSWELL        MOSUNNY   97  47  18 S15G21    30.03F
RUIDOSO          N/A     82  36  18 S10       30.29S
SANTA FE       SUNNY     87  39  18 W10G20    30.22F
TRUTH OR CONSE FAIR      91  43  18 SE14G22   30.09F
TUCUMCARI      PTSUNNY   93  50  23 SW10      30.03F
$$

USA.gov is the U.S. government's official web portal to all federal, state and local government web resources and services.